Content
SEND FEEDBACK

Daily
Averages
Monthly
Summary
British Virgin Islands

BELLE VUE, BRITISH VIRGIN ISLANDS


Home > Caribbean > British Virgin Islands
Elevation: 10 feet     Latitude: 18 19N     Longitude: 064 58W

WEATHER
 
SELECT A DAY
Number of Records: 163,296;   Date Range: 7/1/96 - 10/16/14
 
SHARE

PRINT THIS DATA

[ ← Previous Day ]
WEATHER ALMANAC - JANUARY 31, 2013
[ Next Day → ]
[ °C ]   °F
Weather ElementAverageHighLow
Temperature77.8 °F84 °F (12:53 pm)73 °F (2:53 am)
Dewpoint70.5 °F73 °F (11:53 am)69.8 °F (9:08 am)
Humidity78.8 %91 % (1:53 am)63 % (12:53 pm)
Barometer30.06 in30.11 in (9:53 am)30.02 in (4:53 am)
Wind Speed9.6 mph17.3 mph (9:53 am)
Wind Gust20.7 mph (9:53 am)
Weather ElementAverage
Visibility9.8 mi
Wind DirectionESE (97.3 °)

Weather ElementTotal
Precipitation---
Cooling Degree Days13.5 (Base 65)
Growing Degree Days28.5 (Base 50)
Averaged from 30 records on January 31, 2013
WEATHER CONDITIONS BREAKOUT
WIND DIRECTION BREAKOUT
WEATHER BY HOUR - JANUARY 31, 2013
[ °C ]   °F
Local TimeTemperatureDewpointHumidityBarometerVisibilityWind DirectionWind SpeedGust SpeedPrecipitationEventsConditions
1:53 AM73.9 °F71.1 °F91 %30.04 in10.0 miEast (100°)6.9 mphClear
2:53 AM73.0 °F70.0 °F90 %30.04 in10.0 miEast (100°)5.8 mphPartly Cloudy
3:53 AM73.0 °F70.0 °F90 %30.03 in10.0 miEast (90°)5.8 mphClear
4:53 AM73.9 °F70.0 °F87 %30.02 in10.0 miEast (90°)9.2 mphMostly Cloudy
5:53 AM73.9 °F70.0 °F87 %30.03 in10.0 miEast (100°)10.4 mphPartly Cloudy
6:53 AM73.9 °F70.0 °F87 %30.05 in10.0 miEast (100°)6.9 mphClear
7:53 AM75.9 °F70.0 °F82 %30.06 in10.0 miESE (110°)11.5 mphClear
8:53 AM80.1 °F70.0 °F71 %30.08 in10.0 miEast (100°)11.5 mphMostly Cloudy
9:08 AM78.8 °F69.8 °F74 %30.08 in10.0 miEast (90°)15.0 mphMostly Cloudy
9:40 AM80.6 °F69.8 °F70 %30.10 in10.0 miEast (100°)11.5 mphMostly Cloudy
9:53 AM79.0 °F70.0 °F74 %30.11 in10.0 miEast (90°)17.3 mph20.7 mphMostly Cloudy
10:12 AM78.8 °F69.8 °F74 %30.10 in10.0 miEast (100°)11.5 mph20.7 mphMostly Cloudy
10:53 AM80.1 °F70.0 °F71 %30.10 in10.0 miEast (100°)13.8 mphOvercast
11:53 AM79.0 °F73.0 °F82 %30.09 in10.0 miESE (120°)10.4 mph0.00 inMostly Cloudy
12:53 PM84.0 °F70.0 °F63 %30.07 in10.0 miEast (100°)15.0 mphScattered Clouds
1:53 PM82.9 °F70.0 °F65 %30.04 in10.0 miESE (120°)9.2 mphMostly Cloudy
2:17 PM80.6 °F71.6 °F74 %30.03 in10.0 miEast (90°)10.4 mphMostly Cloudy
2:53 PM82.0 °F70.0 °F67 %30.03 in10.0 miSSE (150°)11.5 mphOvercast
3:53 PM82.0 °F70.0 °F67 %30.02 in10.0 miEast (80°)9.2 mph18.4 mphMostly Cloudy
4:11 PM82.4 °F69.8 °F66 %30.02 in10.0 miEast (100°)9.2 mphMostly Cloudy
4:53 PM81.0 °F70.0 °F69 %30.02 in10.0 miEast (80°)11.5 mphMostly Cloudy
5:53 PM79.0 °F71.1 °F77 %30.03 in10.0 miENE (70°)6.9 mphScattered Clouds
6:53 PM77.0 °F71.1 °F82 %30.04 in10.0 miEast (90°)9.2 mphScattered Clouds
7:53 PM77.0 °F70.0 °F79 %30.05 in10.0 miEast (80°)4.6 mphPartly Cloudy
8:44 PM75.2 °F71.6 °F89 %30.06 in8.0 miESE (120°)11.5 mphOvercast
8:53 PM75.9 °F72.0 °F87 %30.06 in7.0 miESE (110°)8.1 mph0.00 inRainRain
9:00 PM75.2 °F71.6 °F89 %30.06 in10.0 miENE (60°)3.5 mph0.00 inScattered Clouds
9:53 PM75.0 °F71.1 °F87 %30.07 in10.0 miEast (90°)8.1 mph0.00 inClear
10:53 PM75.0 °F71.1 °F87 %30.07 in10.0 miEast (100°)8.1 mphClear
11:53 PM75.0 °F71.1 °F87 %30.06 in10.0 miEast (90°)5.8 mphScattered Clouds
Hourly data recorded from TIST, located miles away from Belle Vue, British Virgin Islands







STORIES FROM OUR PARTNERS